When you browse on this site, cookies collect data to enhance your experience and personalize the content and advertising you see.
Visit our Privacy Policy to learn more. By continuing to use the site, you agree to this use of cookies and data.

Stündliche Wetter Can Tho

Heute, 10 Juli, Freitag

Zeit Temperatur Niederschläge Wind Luftdruck Luftfeuchtigkeit
00:00 +27°C° 0 mm 2 m/S 755 mmHg 90%
01:00 +27°C° 0 mm 1 m/S 755 mmHg 91%
02:00 +27°C° 0 mm 1 m/S 755 mmHg 92%
03:00 +27°C° 0 mm 1 m/S 754 mmHg 92%
04:00 +27°C° 0 mm 1 m/S 754 mmHg 92%
05:00 +27°C° 0 mm 1 m/S 754 mmHg 91%
06:00 +28°C° 0 mm 1 m/S 755 mmHg 90%
07:00 +28°C° 0 mm 1 m/S 755 mmHg 89%
08:00 +30°C° 0.4 mm 1 m/S 755 mmHg 82%
09:00 +31°C° 0.4 mm 2 m/S 755 mmHg 75%
10:00 +34°C° 0.4 mm 2 m/S 756 mmHg 68%
11:00 +34°C° 0.6 mm 2 m/S 755 mmHg 66%
12:00 +34°C° 0.6 mm 2 m/S 755 mmHg 64%
13:00 +35°C° 0.6 mm 3 m/S 755 mmHg 63%
14:00 +34°C° 1.9 mm 3 m/S 754 mmHg 67%
15:00 +33°C° 1.9 mm 3 m/S 754 mmHg 71%
16:00 +31°C° 1.9 mm 3 m/S 753 mmHg 76%
17:00 +30°C° 0.5 mm 3 m/S 754 mmHg 80%
18:00 +29°C° 0.5 mm 3 m/S 754 mmHg 84%
19:00 +28°C° 0.5 mm 3 m/S 755 mmHg 89%
20:00 +28°C° 0 mm 2 m/S 755 mmHg 90%
21:00 +27°C° 0 mm 2 m/S 756 mmHg 91%
22:00 +27°C° 0 mm 2 m/S 756 mmHg 92%
23:00 +27°C° 0 mm 2 m/S 756 mmHg 93%

Morgen, 11 Juli, Samstag

Zeit Temperatur Niederschläge Wind Luftdruck Luftfeuchtigkeit
00:00 +27°C° 0 mm 2 m/S 756 mmHg 93%
01:00 +27°C° 0 mm 2 m/S 755 mmHg 94%
02:00 +27°C° 0.2 mm 2 m/S 755 mmHg 94%
03:00 +27°C° 0.2 mm 2 m/S 755 mmHg 94%
04:00 +27°C° 0.2 mm 2 m/S 754 mmHg 94%
05:00 +27°C° 0.1 mm 1 m/S 754 mmHg 93%
06:00 +27°C° 0.1 mm 1 m/S 755 mmHg 92%
07:00 +26°C° 0.1 mm 0 m/S 755 mmHg 91%
08:00 +28°C° 0 mm 1 m/S 755 mmHg 88%
09:00 +29°C° 0 mm 1 m/S 755 mmHg 84%
10:00 +30°C° 0 mm 2 m/S 755 mmHg 81%
11:00 +31°C° 0 mm 2 m/S 755 mmHg 77%
12:00 +32°C° 0 mm 2 m/S 754 mmHg 73%
13:00 +34°C° 0 mm 3 m/S 754 mmHg 69%
14:00 +33°C° 1.2 mm 3 m/S 754 mmHg 73%
15:00 +31°C° 1.2 mm 3 m/S 753 mmHg 76%
16:00 +31°C° 1.2 mm 3 m/S 753 mmHg 80%
17:00 +30°C° 0.7 mm 3 m/S 753 mmHg 84%
18:00 +29°C° 0.7 mm 3 m/S 754 mmHg 87%
19:00 +28°C° 0.7 mm 3 m/S 755 mmHg 91%
20:00 +28°C° 0 mm 2 m/S 755 mmHg 91%
21:00 +27°C° 0 mm 2 m/S 756 mmHg 90%
22:00 +27°C° 0 mm 2 m/S 756 mmHg 90%
23:00 +27°C° 0 mm 2 m/S 756 mmHg 90%

übermorgen, 12 Juli, Sonntag

Zeit Temperatur Niederschläge Wind Luftdruck Luftfeuchtigkeit
00:00 +27°C° 0 mm 2 m/S 755 mmHg 90%
01:00 +27°C° 0 mm 2 m/S 755 mmHg 90%
02:00 +27°C° 0 mm 2 m/S 755 mmHg 90%
03:00 +26°C° 0 mm 1 m/S 754 mmHg 91%
04:00 +26°C° 0 mm 1 m/S 754 mmHg 92%
05:00 +27°C° 0 mm 1 m/S 754 mmHg 91%
06:00 +27°C° 0 mm 1 m/S 755 mmHg 90%
07:00 +28°C° 0 mm 1 m/S 755 mmHg 88%
08:00 +29°C° 0 mm 2 m/S 755 mmHg 81%
09:00 +31°C° 0 mm 2 m/S 755 mmHg 74%
10:00 +34°C° 0 mm 2 m/S 755 mmHg 68%
11:00 +34°C° 1.5 mm 2 m/S 755 mmHg 68%
12:00 +34°C° 1.5 mm 2 m/S 755 mmHg 69%
13:00 +34°C° 1.5 mm 2 m/S 754 mmHg 69%
14:00 +31°C° 3.6 mm 2 m/S 754 mmHg 75%
15:00 +30°C° 3.6 mm 2 m/S 753 mmHg 82%
16:00 +29°C° 3.6 mm 2 m/S 753 mmHg 88%
17:00 +28°C° 2.4 mm 2 m/S 753 mmHg 90%
18:00 +27°C° 2.4 mm 2 m/S 754 mmHg 93%
19:00 +26°C° 2.4 mm 2 m/S 755 mmHg 95%
20:00 +26°C° 0.6 mm 2 m/S 755 mmHg 95%
21:00 +26°C° 0.6 mm 1 m/S 756 mmHg 95%
22:00 +26°C° 0.6 mm 1 m/S 756 mmHg 95%
23:00 +26°C° 0.3 mm 1 m/S 756 mmHg 94%

13 Juli, Montag

Zeit Temperatur Niederschläge Wind Luftdruck Luftfeuchtigkeit
00:00 +26°C° 0.3 mm 1 m/S 755 mmHg 94%
01:00 +26°C° 0.3 mm 1 m/S 755 mmHg 93%
02:00 +26°C° 0 mm 1 m/S 755 mmHg 93%
03:00 +26°C° 0 mm 1 m/S 755 mmHg 93%
04:00 +26°C° 0 mm 1 m/S 754 mmHg 93%
05:00 +27°C° 0 mm 1 m/S 755 mmHg 92%
06:00 +27°C° 0 mm 1 m/S 755 mmHg 91%
07:00 +27°C° 0 mm 1 m/S 755 mmHg 90%
08:00 +28°C° 0.2 mm 1 m/S 756 mmHg 87%
09:00 +29°C° 0.2 mm 1 m/S 756 mmHg 84%
10:00 +30°C° 0.2 mm 2 m/S 756 mmHg 81%
11:00 +29°C° 1.4 mm 2 m/S 756 mmHg 83%
12:00 +29°C° 1.4 mm 3 m/S 755 mmHg 85%
13:00 +29°C° 1.4 mm 3 m/S 755 mmHg 87%
14:00 +28°C° 1.7 mm 4 m/S 754 mmHg 89%
15:00 +28°C° 1.7 mm 4 m/S 754 mmHg 90%
16:00 +27°C° 1.7 mm 4 m/S 754 mmHg 92%
17:00 +27°C° 0.2 mm 3 m/S 754 mmHg 93%
18:00 +26°C° 0.2 mm 2 m/S 755 mmHg 94%
19:00 +25°C° 0.2 mm 1 m/S 755 mmHg 95%
20:00 +25°C° 0 mm 2 m/S 756 mmHg 94%
21:00 +25°C° 0 mm 2 m/S 757 mmHg 94%
22:00 +26°C° 0 mm 2 m/S 757 mmHg 93%
23:00 +25°C° 0.7 mm 2 m/S 757 mmHg 94%

14 Juli, Dienstag

Zeit Temperatur Niederschläge Wind Luftdruck Luftfeuchtigkeit
00:00 +25°C° 0.7 mm 2 m/S 756 mmHg 95%
01:00 +25°C° 0.7 mm 2 m/S 756 mmHg 96%
02:00 +25°C° 0.1 mm 2 m/S 756 mmHg 96%
03:00 +25°C° 0.1 mm 2 m/S 755 mmHg 96%
04:00 +26°C° 0.1 mm 2 m/S 755 mmHg 96%
05:00 +26°C° 0 mm 2 m/S 755 mmHg 95%
06:00 +26°C° 0 mm 2 m/S 755 mmHg 94%
07:00 +26°C° 0 mm 1 m/S 756 mmHg 93%
08:00 +28°C° 0.2 mm 2 m/S 756 mmHg 88%
09:00 +29°C° 0.2 mm 2 m/S 756 mmHg 82%
10:00 +31°C° 0.2 mm 3 m/S 757 mmHg 77%
11:00 +31°C° 1.5 mm 3 m/S 756 mmHg 77%
12:00 +32°C° 1.5 mm 4 m/S 756 mmHg 77%
13:00 +32°C° 1.5 mm 4 m/S 755 mmHg 77%
14:00 +32°C° 0.9 mm 4 m/S 755 mmHg 77%
15:00 +32°C° 0.9 mm 4 m/S 755 mmHg 78%
16:00 +32°C° 0.9 mm 4 m/S 754 mmHg 79%
17:00 +30°C° 0.8 mm 3 m/S 755 mmHg 82%
18:00 +29°C° 0.8 mm 3 m/S 755 mmHg 85%
19:00 +28°C° 0.8 mm 2 m/S 756 mmHg 89%
20:00 +28°C° 0.3 mm 2 m/S 756 mmHg 89%
21:00 +27°C° 0.3 mm 2 m/S 757 mmHg 90%
22:00 +27°C° 0.3 mm 2 m/S 757 mmHg 90%
23:00 +27°C° 0 mm 2 m/S 757 mmHg 91%

15 Juli, Mittwoch

Zeit Temperatur Niederschläge Wind Luftdruck Luftfeuchtigkeit
00:00 +27°C° 0 mm 2 m/S 756 mmHg 91%
01:00 +27°C° 0 mm 2 m/S 756 mmHg 92%
02:00 +27°C° 0 mm 1 m/S 756 mmHg 92%
03:00 +26°C° 0 mm 1 m/S 755 mmHg 92%
04:00 +26°C° 0 mm 1 m/S 755 mmHg 92%
05:00 +27°C° 0 mm 1 m/S 756 mmHg 91%
06:00 +27°C° 0 mm 1 m/S 756 mmHg 90%
07:00 +28°C° 0 mm 1 m/S 756 mmHg 89%
08:00 +29°C° 0.1 mm 1 m/S 756 mmHg 83%
09:00 +30°C° 0.1 mm 1 m/S 756 mmHg 77%
10:00 +32°C° 0.1 mm 1 m/S 756 mmHg 72%
11:00 +32°C° 0.2 mm 2 m/S 756 mmHg 69%
12:00 +34°C° 0.2 mm 2 m/S 755 mmHg 66%
13:00 +35°C° 0.2 mm 2 m/S 754 mmHg 63%
14:00 +34°C° 0.7 mm 2 m/S 754 mmHg 65%
15:00 +34°C° 0.7 mm 2 m/S 754 mmHg 67%
16:00 +34°C° 0.7 mm 2 m/S 753 mmHg 68%
17:00 +31°C° 1.6 mm 2 m/S 753 mmHg 75%
18:00 +30°C° 1.6 mm 2 m/S 754 mmHg 81%
19:00 +28°C° 1.6 mm 2 m/S 754 mmHg 88%
20:00 +28°C° 0.1 mm 2 m/S 754 mmHg 89%
21:00 +28°C° 0.1 mm 1 m/S 755 mmHg 90%
22:00 +28°C° 0.1 mm 1 m/S 755 mmHg 90%
23:00 +27°C° 0 mm 1 m/S 755 mmHg 91%
Mehr zeigen